World > North America > United States > New York

Hourly New Breman, NY Regional Weather

Feedback E-mail the Weather

Quick WX

New Breman, NY Weather Maps

°F °C°F °C
New Breman Weather Map
UTC Time: 7/1/2022, 10:06
Your Time:

New Breman, NY Regional Weather

Expires:202207011000;;485729
ASUS41 KALY 010910
RWRALY

NEW YORK STATE HOURLY WEATHER ROUNDUP
NATIONAL WEATHER SERVICE ALBANY NY
500 AM EDT FRI JUL 01 2022

NOTE: "FAIR" INDICATES FEW OR NO CLOUDS BELOW 12,000 FEET WITH NO
SIGNIFICANT WEATHER AND/OR NO OBSTRUCTIONS TO VISIBILITY.


NYZ005>009-017-018-044>046-055-056-011000-
CENTRAL

  
CITY           SKY/WX    TMP DP  RH WIND       PRES   REMARKS
FULTON         PTCLDY    68  57  68 S6        29.96F                  
SYRACUSE       MOCLDY    74  54  49 SW12      29.98F                  
ROME           PTCLDY    65  58  78 E6        30.00F                  
ELMIRA         CLEAR     58  54  86 CALM      30.05S                  
BINGHAMTON     PTCLDY    66  53  63 SW8       30.07F                  
MONTICELLO     CLEAR     58  57  97 CALM      30.12F                  
$$


SKY/WX - Weather  TMP - Temperature  DP - Dew Point  RH - Humidity
WIND - Wind Direction/Speed PRES - Barometric Pressure VSB - Visibility
WCI - Wind Chill Index E13G22 Wind - East Wind 13 mph/Gusts of 22 mph

Trending Headlines

New Breman Radar Loop



New Breman Quick Facts


National Two Day Weather Forecast


E-mail the New Breman Weather Forecast

Voice your opinion or tell us about page issues...